Location: S�tio Afonso Gruber
(26.1760°S, 49.5250°W)
Time: 09:58:43
(UTC+00:00)

NANOSAT C BR1 - Pass Details

Date: 09 December 2022
Orbit: 579 x 595 km, 98.0° (Epoch: 04 February)

Event Time Altitude Azimuth Distance (km) Brightness Sun altitude
Exits shadow 04:53:18 16° 176° (S) 1,573 ? -35.0°
Drops below altitude 10° 04:54:10 10° 180° (S) 1,916 ? -34.9°
Sets 04:56:23 0° 184° (S) 2,825 ? -34.7°
